Location: East Guldeford
(50.9500°N, 0.7500°E)
Time: 18:36:22
(UTC+00:00)

Cosmos 1536 - Pass Details

Date: 12 May 2021
Orbit: 539 x 558 km, 82.5° (Epoch: 16 June)

Event Time Altitude Azimuth Distance (km) Brightness Sun altitude
Rises 20:57:31 0° 357° (N) 2,750 7.3 -10.7°
Reaches altitude 10° 20:59:55 10° 8° (N) 1,846 6.1 -11.0°
Maximum altitude 21:03:32 31° 71° (ENE) 995 3.9 -11.3°
Enters shadow 21:06:02 17° 124° (SE) 1,455 4.4 -11.6°
